Location: Montreal
(45.5000°N, 73.5833°W)
Time: 19:49:11
(UTC-04:00)

Vanguard 2 - All Passes

Search period start: 19 October 2017 00:00
Search period end: 29 October 2017 00:00
Orbit: 554 x 2939 km, 32.9° (Epoch: 19 October)

Date Brightness Start Highest point End Pass type
(mag) Time Alt. Az. Time Alt. Az. Time Alt. Az.
19 Oct - 06:33:59 10° S 06:39:59 13° SSE 06:45:19 10° ESE visible
19 Oct - 08:38:23 10° SSW 08:49:45 28° SSE 08:57:48 10° ESE daylight
19 Oct - 10:48:32 10° WSW 10:59:05 36° S 11:05:51 10° ESE daylight
19 Oct - 13:00:10 10° WSW 13:07:20 27° SSW 13:12:15 10° SE daylight
20 Oct - 06:48:25 10° S 06:57:55 19° SSE 07:05:43 10° ESE visible
20 Oct - 08:55:30 10° SW 09:07:46 33° SSE 09:16:09 10° ESE daylight
20 Oct - 11:06:26 10° WSW 11:17:02 37° S 11:23:48 10° ESE daylight
20 Oct - 13:18:31 10° WSW 13:25:03 23° SSW 13:29:43 10° SSE daylight
21 Oct - 07:04:15 10° SSW 07:15:51 24° SSE 07:24:56 10° ESE daylight
21 Oct - 09:12:56 10° SW 09:25:47 37° S 09:34:20 10° ESE daylight
21 Oct - 11:24:29 10° WSW 11:34:58 37° S 11:41:39 10° SE daylight
21 Oct - 13:37:04 10° WSW 13:42:42 19° SSW 13:46:54 10° SSE daylight
22 Oct - 05:17:54 10° SSE 05:23:52 13° SE 05:29:24 10° ESE visible
22 Oct - 07:20:45 10° SSW 07:33:49 30° SSE 07:43:39 10° ESE daylight
22 Oct - 09:30:36 10° WSW 09:43:48 41° S 09:52:24 10° ESE daylight
22 Oct - 11:42:38 10° WSW 11:52:49 35° SSW 11:59:23 10° SE daylight
22 Oct - 13:56:03 10° WSW 14:00:14 15° SW 14:03:38 10° S daylight
23 Oct - 05:31:45 10° S 05:41:39 18° SE 05:50:22 10° ESE visible
23 Oct - 07:37:43 10° SW 07:51:48 35° SSE 08:02:05 10° ESE daylight
23 Oct - 09:48:28 10° WSW 10:01:48 43° S 10:10:23 10° ESE daylight
23 Oct - 12:00:54 10° WSW 12:10:36 32° SSW 12:16:59 10° SE daylight
23 Oct - 14:16:30 10° SW 14:17:40 10° SW 14:18:46 10° SW daylight
24 Oct - 05:47:15 10° SSW 05:59:29 24° SSE 06:09:51 10° ESE visible
24 Oct - 07:55:01 10° SW 08:09:47 40° SSE 08:20:19 10° ESE daylight
24 Oct - 10:06:27 10° WSW 10:19:45 43° S 10:28:17 10° ESE daylight
24 Oct - 12:19:16 10° W 12:28:18 28° SSW 12:34:25 10° SSE daylight
25 Oct - 04:03:50 10° SSE 04:07:31 11° SE 04:11:08 10° ESE visible
25 Oct - 06:03:32 10° SSW 06:17:20 29° SSE 06:28:45 10° E visible
25 Oct - 08:12:35 10° SW 08:27:48 44° S 08:38:27 10° ESE daylight
25 Oct - 10:24:34 10° WSW 10:37:41 42° SSW 10:46:06 10° SE daylight
25 Oct - 12:37:51 10° W 12:45:53 23° SW 12:51:36 10° SSE daylight
26 Oct - 04:16:03 10° S 04:25:09 16° SE 04:33:47 10° ESE visible
26 Oct - 06:20:19 10° SSW 06:35:12 35° SSE 06:47:17 10° E visible
26 Oct - 08:30:21 10° WSW 08:45:47 46° S 08:56:28 10° ESE daylight
26 Oct - 10:42:45 10° W 10:55:32 40° SSW 11:03:49 10° SE daylight
26 Oct - 12:56:45 10° WSW 13:03:22 18° SW 13:08:23 10° S daylight
27 Oct - 04:31:05 10° S 04:42:47 22° SE 04:53:45 10° E visible
27 Oct - 06:37:29 10° SW 06:53:08 40° SSE 07:05:36 10° E visible
27 Oct - 08:48:16 10° WSW 09:03:48 48° S 09:14:27 10° ESE daylight
27 Oct - 11:01:03 10° W 11:13:18 36° SSW 11:21:23 10° SE daylight
27 Oct - 13:16:20 10° WSW 13:20:43 13° SW 13:24:24 10° SSW daylight
28 Oct - 04:47:05 10° SSW 05:00:29 28° SSE 05:12:54 10° E visible
28 Oct - 06:54:55 10° SW 07:11:05 45° SSE 07:23:49 10° E visible
28 Oct - 09:06:19 10° WSW 09:21:46 48° S 09:32:19 10° ESE daylight
28 Oct - 11:19:28 10° W 11:30:58 32° SSW 11:38:47 10° SSE daylight
